KF7IOR Weather Reports


time (UTC)temp
C
wind
direction
speed
KPH
gust
KPH
rain 1hr
cm
rain 24hr
cm
rain mn
cm
humidity
%
barometer
mb
20260507063038 12 22 1.6 6.4 0.00 0.00 0.00 74 1021.2
20260507062535 12 266 3.2 8.0 0.00 0.00 0.00 74 1021.2
20260507062035 12 259 1.6 8.0 0.00 0.00 0.00 75 1021.1
20260507061539 12 360 0.0 8.0 0.00 0.00 0.00 75 1021.3
20260507061035 12 332 1.6 8.0 0.00 0.00 0.00 75 1021.3
20260507060535 12 323 1.6 6.4 0.00 0.00 0.00 75 1021.3
20260507060039 12 320 1.6 9.7 0.00 0.00 0.00 75 1021.3
20260507055535 12 327 1.6 9.7 0.00 0.00 0.00 75 1021.3
20260507055036 12 15 3.2 9.7 0.00 0.00 0.00 75 1021.3
20260507054545 12 83 1.6 9.7 0.00 0.00 0.00 75 1021.2
20260507054039 12 331 3.2 8.0 0.00 0.00 0.00 76 1021.3
20260507053536 12 329 3.2 8.0 0.00 0.00 0.00 75 1021.3
20260507053045 12 336 1.6 8.0 0.00 0.00 0.00 76 1021.3
20260507052535 12 360 1.6 6.4 0.00 0.00 0.00 75 1021.3
20260507052035 12 350 1.6 12.9 0.00 0.00 0.00 75 1021.1
20260507051544 12 331 3.2 16.1 0.00 0.00 0.00 75 1021.2
20260507051034 12 5 3.2 16.1 0.00 0.00 0.00 75 1021.2
20260507050534 12 326 1.6 12.9 0.00 0.00 0.00 74 1021.2
20260507050043 13 352 4.8 16.1 0.00 0.00 0.00 74 1021.2
20260507045535 13 19 6.4 16.1 0.00 0.00 0.00 74 1021.3
20260507045035 13 20 3.2 12.9 0.00 0.00 0.00 74 1021.3
20260507044539 13 321 4.8 12.9 0.00 0.00 0.00 73 1021.2
20260507044036 13 46 4.8 22.5 0.00 0.00 0.00 73 1021.2
20260507043534 13 340 4.8 22.5 0.00 0.00 0.00 73 1021.2
20260507043035 13 298 4.8 20.9 0.00 0.00 0.00 73 1021.1
20260507042536 13 352 6.4 20.9 0.00 0.00 0.00 73 1021.0
20260507042035 13 26 4.8 19.3 0.00 0.00 0.00 73 1020.9
20260507041553 13 17 9.7 19.3 0.00 0.00 0.00 72 1020.9
20260507041038 13 321 3.2 16.1 0.00 0.00 0.00 72 1021.0
20260507040536 13 42 6.4 16.1 0.00 0.00 0.00 72 1020.9
20260507040051 14 312 4.8 16.1 0.00 0.00 0.00 72 1020.9
20260507035535 14 29 8.0 17.7 0.00 0.00 0.00 72 1020.8
20260507035035 14 344 8.0 17.7 0.00 0.00 0.00 71 1020.7
20260507034539 14 349 4.8 14.5 0.00 0.00 0.00 71 1020.7
20260507034035 14 318 3.2 14.5 0.00 0.00 0.00 71 1020.7
20260507033538 14 343 4.8 14.5 0.00 0.00 0.00 71 1020.6
20260507033044 15 5 3.2 11.3 0.00 0.00 0.00 71 1020.6
20260507032535 15 298 4.8 17.7 0.00 0.00 0.00 71 1020.4
20260507032034 15 319 4.8 17.7 0.00 0.00 0.00 71 1020.4
20260507031538 15 5 6.4 16.1 0.00 0.00 0.00 71 1020.3
20260507031035 15 348 4.8 16.1 0.00 0.00 0.00 70 1020.3
20260507030535 15 306 6.4 16.1 0.00 0.00 0.00 70 1020.1
20260507030049 15 39 6.4 12.9 0.00 0.00 0.00 70 1020.0
20260507025534 15 352 4.8 12.9 0.00 0.00 0.00 70 1020.0
20260507025035 15 351 4.8 12.9 0.00 0.00 0.00 70 1020.0
20260507024542 15 350 3.2 12.9 0.00 0.00 0.00 70 1019.9
20260507024036 16 290 3.2 12.9 0.00 0.00 0.00 69 1019.8
20260507023535 16 335 4.8 11.3 0.00 0.00 0.00 69 1019.8
20260507023046 16 305 3.2 9.7 0.00 0.00 0.00 69 1019.9
20260507022535 16 360 3.2 9.7 0.00 0.00 0.00 69 1019.8
20260507022038 16 5 4.8 14.5 0.00 0.00 0.00 68 1019.7
20260507021545 16 289 6.4 14.5 0.00 0.00 0.00 68 1019.8
20260507021035 16 11 3.2 9.7 0.00 0.00 0.00 67 1019.8
20260507020536 17 352 3.2 9.7 0.00 0.00 0.00 67 1019.8
20260507020047 17 309 1.6 8.0 0.00 0.00 0.00 68 1019.8
20260507015534 17 352 3.2 9.7 0.00 0.00 0.00 68 1019.8
20260507015035 17 13 1.6 9.7 0.00 0.00 0.00 67 1019.8
20260507014558 17 360 1.6 12.9 0.00 0.00 0.00 67 1019.9
20260507014035 17 332 4.8 12.9 0.00 0.00 0.00 67 1019.9
20260507013535 17 27 6.4 17.7 0.00 0.00 0.00 66 1019.9
20260507013108 17 10 6.4 17.7 0.00 0.00 0.00 67 1020.0
20260507012535 17 314 1.6 16.1 0.00 0.00 0.00 67 1019.9
20260507012035 17 341 3.2 22.5 0.00 0.00 0.00 66 1019.9
20260507011545 17 350 4.8 22.5 0.00 0.00 0.00 65 1019.9
20260507011036 18 290 8.0 19.3 0.00 0.00 0.00 64 1020.0
20260507010535 18 352 6.4 24.1 0.00 0.00 0.00 64 1019.8
20260507010044 18 16 9.7 24.1 0.00 0.00 0.00 64 1019.8
20260507005535 18 5 6.4 19.3 0.00 0.00 0.00 64 1019.9
20260507005034 18 320 4.8 19.3 0.00 0.00 0.00 64 1019.9
20260507004550 18 334 4.8 14.5 0.00 0.00 0.00 64 1019.8
20260507004035 18 22 4.8 16.1 0.00 0.00 0.00 65 1019.8
20260507003535 18 281 6.4 16.1 0.00 0.00 0.00 64 1019.8
20260507003044 18 334 4.8 17.7 0.00 0.00 0.00 64 1019.8
20260507002536 18 332 6.4 17.7 0.00 0.00 0.00 63 1019.7
20260507002036 19 24 4.8 17.7 0.00 0.00 0.00 63 1019.7
20260507001604 18 26 6.4 17.7 0.00 0.00 0.00 63 1019.6
20260507001037 19 344 8.0 16.1 0.00 0.00 0.00 63 1019.7
20260507000537 19 17 1.6 14.5 0.00 0.00 0.00 64 1019.7
20260507000049 19 316 4.8 14.5 0.00 0.00 0.00 65 1019.6
20260506235537 19 325 4.8 14.5 0.00 0.00 0.00 66 1019.7
20260506235035 19 326 4.8 14.5 0.00 0.00 0.00 65 1019.5
20260506234546 20 30 6.4 12.9 0.00 0.00 0.00 64 1019.6
20260506234041 20 348 4.8 12.9 0.00 0.00 0.00 62 1019.6
20260506233537 20 319 3.2 11.3 0.00 0.00 0.00 63 1019.5
20260506233047 20 311 3.2 12.9 0.00 0.00 0.00 63 1019.6
20260506232535 20 336 4.8 12.9 0.00 0.00 0.00 62 1019.5
20260506232035 21 352 4.8 9.7 0.00 0.00 0.00 63 1019.6
20260506231546 21 323 1.6 8.0 0.00 0.00 0.00 63 1019.5
20260506231035 20 119 3.2 9.7 0.00 0.00 0.00 62 1019.6
20260506230535 20 251 3.2 9.7 0.00 0.00 0.00 62 1019.5
20260506230042 20 5 4.8 8.0 0.00 0.00 0.00 61 1019.6
20260506225535 21 64 1.6 6.4 0.00 0.00 0.00 61 1019.6
20260506225039 20 10 1.6 4.8 0.00 0.00 0.00 61 1019.7
20260506224550 21 340 1.6 6.4 0.00 0.00 0.00 61 1019.7
20260506224034 20 168 1.6 6.4 0.00 0.00 0.00 60 1019.8
20260506223535 20 213 0.0 3.2 0.00 0.00 0.00 61 1019.8
20260506223102 20 328 0.0 4.8 0.00 0.00 0.00 63 1019.9
20260506222535 20 215 3.2 4.8 0.00 0.00 0.00 62 1020.0
20260506222036 20 241 1.6 4.8 0.00 0.00 0.00 61 1019.9
20260506221545 20 15 1.6 6.4 0.00 0.00 0.00 62 1019.9
20260506221035 20 309 1.6 6.4 0.00 0.00 0.00 62 1020.0
20260506220535 20 360 3.2 8.0 0.00 0.00 0.00 64 1020.1
20260506220045 18 86 3.2 9.7 0.00 0.00 0.00 65 1020.2
20260506215535 19 325 4.8 9.7 0.00 0.00 0.00 66 1020.2
20260506215035 19 316 3.2 8.0 0.00 0.00 0.00 66 1020.2
20260506214542 18 13 1.6 4.8 0.00 0.00 0.00 66 1020.1
20260506214034 18 55 1.6 4.8 0.00 0.00 0.00 65 1020.0
20260506213534 19 200 1.6 9.7 0.00 0.00 0.00 64 1020.1
20260506213042 20 324 1.6 9.7 0.00 0.00 0.00 66 1020.1
20260506212535 20 263 1.6 8.0 0.00 0.00 0.00 65 1020.2
20260506212036 19 293 3.2 8.0 0.00 0.00 0.00 65 1020.3
20260506211547 19 292 4.8 8.0 0.00 0.00 0.00 64 1020.3
20260506211036 20 340 1.6 3.2 0.00 0.00 0.00 63 1020.4
20260506210536 19 69 1.6 4.8 0.00 0.00 0.00 67 1020.4
20260506210047 19 167 0.0 4.8 0.00 0.00 0.00 67 1020.5
20260506205534 19 133 1.6 4.8 0.00 0.00 0.00 67 1020.5
20260506205034 18 76 1.6 4.8 0.00 0.00 0.00 67 1020.5
20260506204545 18 31 1.6 4.8 0.00 0.00 0.00 67 1020.6
20260506204034 17 159 0.0 4.8 0.00 0.00 0.00 69 1020.5
20260506203537 18 99 1.6 6.4 0.00 0.00 0.00 68 1020.6
20260506203047 18 83 1.6 6.4 0.00 0.00 0.00 70 1020.5
20260506202534 17 117 1.6 6.4 0.00 0.00 0.00 69 1020.5
20260506202037 17 360 0.0 4.8 0.00 0.00 0.00 72 1020.5
20260506201545 17 127 1.6 4.8 0.00 0.00 0.00 70 1020.4
20260506201050 17 191 1.6 6.4 0.00 0.00 0.00 72 1020.5
20260506200535 17 57 1.6 6.4 0.00 0.00 0.00 71 1020.6
20260506195535 17 22 0.0 4.8 0.00 0.00 0.00 70 1020.7
20260506195034 17 23 1.6 4.8 0.00 0.00 0.00 71 1020.8
20260506194541 16 119 1.6 4.8 0.00 0.00 0.00 73 1020.8
20260506194035 16 321 1.6 4.8 0.00 0.00 0.00 74 1020.9
20260506193538 16 335 1.6 3.2 0.00 0.00 0.00 74 1020.9
20260506193041 16 71 1.6 4.8 0.00 0.00 0.00 74 1020.9
20260506192535 16 19 1.6 6.4 0.00 0.00 0.00 75 1020.9
20260506192037 16 5 1.6 6.4 0.00 0.00 0.00 75 1020.9
20260506191548 16 352 1.6 4.8 0.00 0.00 0.00 74 1020.9
20260506191035 16 346 1.6 4.8 0.00 0.00 0.00 74 1020.8
20260506190534 16 140 1.6 3.2 0.00 0.00 0.00 75 1020.8
20260506190045 15 110 1.6 3.2 0.00 0.00 0.00 75 1020.8
20260506185535 16 0 0.0 4.8 0.00 0.00 0.00 75 1020.8
20260506185034 16 9 1.6 4.8 0.00 0.00 0.00 75 1020.8
20260506184540 16 261 0.0 3.2 0.00 0.00 0.00 76 1020.7
20260506184036 15 236 1.6 3.2 0.00 0.00 0.00 76 1020.8
20260506183535 16 279 0.0 3.2 0.00 0.00 0.00 74 1020.8
20260506183047 16 168 1.6 4.8 0.00 0.00 0.00 75 1020.7
20260506182534 15 172 1.6 4.8 0.00 0.00 0.00 75 1020.7
20260506182034 15 126 1.6 4.8 0.00 0.00 0.00 75 1020.7
20260506181545 15 257 1.6 4.8 0.00 0.00 0.00 76 1020.8
20260506181035 15 256 0.0 3.2 0.00 0.00 0.00 76 1020.8
20260506180536 15 0 1.6 3.2 0.00 0.00 0.00 75 1020.8
20260506180052 15 139 0.0 3.2 0.00 0.00 0.00 76 1020.8
20260506175535 15 156 0.0 3.2 0.00 0.00 0.00 77 1020.7
20260506175034 15 0 0.0 3.2 0.00 0.00 0.00 77 1020.7
20260506174543 15 0 0.0 3.2 0.00 0.00 0.00 77 1020.9
20260506174037 14 69 0.0 3.2 0.00 0.00 0.00 77 1020.7
20260506173535 14 0 0.0 3.2 0.00 0.00 0.00 77 1020.6
20260506173041 15 360 1.6 4.8 0.00 0.00 0.00 77 1020.6
20260506172535 15 0 0.0 4.8 0.00 0.00 0.00 76 1020.6
20260506172034 15 144 3.2 4.8 0.00 0.00 0.00 76 1020.5
20260506171550 14 128 1.6 3.2 0.00 0.00 0.00 77 1020.5
20260506171034 14 25 1.6 3.2 0.00 0.00 0.00 77 1020.5
20260506170538 14 0 0.0 3.2 0.00 0.00 0.00 77 1020.5
20260506170042 15 333 0.0 3.2 0.00 0.00 0.00 78 1020.5
20260506165537 14 83 0.0 4.8 0.00 0.00 0.00 78 1020.4
20260506165035 14 333 0.0 4.8 0.00 0.00 0.00 78 1020.6
20260506164539 14 348 0.0 3.2 0.00 0.00 0.00 78 1020.6
20260506164035 14 331 1.6 4.8 0.00 0.00 0.00 79 1020.6
20260506163535 13 352 0.0 4.8 0.00 0.00 0.00 78 1020.6
20260506163050 13 5 1.6 3.2 0.00 0.00 0.00 78 1020.6
20260506162534 13 320 1.6 3.2 0.00 0.00 0.00 79 1020.6
20260506162036 13 340 0.0 3.2 0.00 0.00 0.00 79 1020.6
20260506161553 14 60 0.0 3.2 0.00 0.00 0.00 78 1020.4
20260506161038 13 0 0.0 3.2 0.00 0.00 0.00 78 1020.4
20260506160538 13 26 0.0 3.2 0.00 0.00 0.00 79 1020.4
20260506160046 13 325 1.6 3.2 0.00 0.00 0.00 79 1020.4
20260506155537 13 272 0.0 3.2 0.00 0.00 0.00 79 1020.1
20260506155036 13 16 0.0 4.8 0.00 0.00 0.00 80 1020.1
20260506154543 13 49 1.6 4.8 0.00 0.00 0.00 78 1019.9
20260506154035 13 81 0.0 3.2 0.00 0.00 0.00 80 1019.8
20260506153536 13 182 0.0 4.8 0.00 0.00 0.00 80 1019.9
20260506153041 13 0 0.0 4.8 0.00 0.00 0.00 80 1020.0
20260506152536 13 90 1.6 3.2 0.00 0.00 0.00 81 1020.3
20260506152036 13 19 1.6 4.8 0.00 0.00 0.00 81 1020.4
20260506151547 13 352 1.6 6.4 0.00 0.00 0.00 81 1020.5
20260506151035 13 40 1.6 9.7 0.00 0.00 0.00 81 1020.6
20260506150535 13 26 3.2 9.7 0.00 0.00 0.00 81 1020.5
20260506150047 13 296 1.6 12.9 0.00 0.00 0.00 81 1020.6
20260506145536 13 13 3.2 12.9 0.00 0.00 0.00 81 1020.5
20260506145035 13 321 4.8 12.9 0.00 0.00 0.00 81 1020.5
20260506144540 13 318 3.2 8.0 0.00 0.00 0.00 81 1020.3
20260506144035 13 5 1.6 8.0 0.00 0.00 0.00 81 1020.1
20260506143535 13 349 3.2 8.0 0.00 0.00 0.00 81 1020.3
20260506143051 13 360 3.2 8.0 0.00 0.00 0.00 81 1020.3
20260506142536 13 329 1.6 4.8 0.00 0.00 0.00 81 1020.1
20260506142036 13 315 1.6 3.2 0.00 0.00 0.00 81 1020.0
20260506141542 13 336 0.0 4.8 0.00 0.00 0.00 81 1019.8
20260506141036 13 352 0.0 4.8 0.00 0.00 0.00 82 1019.7
20260506140536 13 300 1.6 4.8 0.00 0.00 0.00 81 1019.6
20260506140050 13 0 1.6 4.8 0.00 0.00 0.00 81 1019.7
20260506135535 13 22 0.0 3.2 0.00 0.00 0.00 82 1019.7
20260506135035 13 0 0.0 8.0 0.00 0.00 0.00 82 1019.7
20260506134610 13 352 1.6 8.0 0.00 0.00 0.00 82 1019.6
20260506134035 13 311 3.2 4.8 0.00 0.00 0.00 82 1019.5
20260506133535 13 334 0.0 3.2 0.00 0.00 0.00 82 1019.5
20260506133041 13 17 0.0 3.2 0.00 0.00 0.00 82 1019.6
20260506132535 13 324 1.6 3.2 0.00 0.00 0.00 83 1019.5
20260506132035 13 0 0.0 3.2 0.00 0.00 0.00 82 1019.4
20260506131604 13 360 0.0 3.2 0.00 0.00 0.00 82 1019.4
20260506131035 13 0 0.0 3.2 0.00 0.00 0.00 82 1019.2
20260506130535 13 0 0.0 0.0 0.00 0.00 0.00 82 1019.1
20260506130045 13 0 0.0 0.0 0.00 0.00 0.00 82 1019.1
20260506125535 13 0 0.0 0.0 0.00 0.00 0.00 82 1019.1
20260506125036 13 0 0.0 0.0 0.00 0.00 0.00 82 1018.9
20260506124540 13 0 0.0 0.0 0.00 0.00 0.00 82 1018.9
20260506124037 13 0 0.0 3.2 0.00 0.00 0.00 82 1018.9
20260506123537 13 0 0.0 3.2 0.00 0.00 0.00 82 1018.9
20260506123048 13 9 0.0 3.2 0.00 0.00 0.00 81 1018.9
20260506122536 13 0 0.0 3.2 0.00 0.00 0.00 82 1018.9
20260506122036 13 0 0.0 3.2 0.00 0.00 0.00 81 1018.9
20260506121545 13 0 0.0 3.2 0.00 0.00 0.00 82 1018.9
20260506121035 13 0 0.0 4.8 0.00 0.00 0.00 81 1019.0
20260506120535 13 343 1.6 4.8 0.00 0.00 0.00 81 1019.0
20260506120047 13 5 0.0 3.2 0.00 0.00 0.00 81 1018.9
20260506115537 13 0 0.0 3.2 0.00 0.00 0.00 81 1018.9
20260506115036 13 13 1.6 3.2 0.00 0.00 0.00 81 1018.9
20260506114548 13 0 0.0 3.2 0.00 0.00 0.00 81 1018.8
20260506114036 13 25 0.0 6.4 0.00 0.00 0.00 81 1018.7
20260506113537 13 288 1.6 6.4 0.00 0.00 0.00 81 1018.6
20260506113043 13 31 1.6 6.4 0.00 0.00 0.00 81 1018.6
20260506112536 13 352 1.6 6.4 0.00 0.00 0.00 81 1018.7
20260506112035 13 340 1.6 6.4 0.00 0.00 0.00 81 1018.6
20260506111602 13 342 0.0 8.0 0.00 0.00 0.00 81 1018.5
20260506111035 13 274 0.0 8.0 0.00 0.00 0.00 81 1018.5
20260506110537 13 331 3.2 8.0 0.00 0.00 0.00 80 1018.5
20260506110045 13 347 1.6 4.8 0.00 0.00 0.00 80 1018.4
20260506105536 13 333 1.6 4.8 0.00 0.00 0.00 80 1018.3
20260506105036 13 0 0.0 4.8 0.00 0.00 0.00 80 1018.2
20260506104544 13 279 1.6 4.8 0.00 0.00 0.00 80 1018.2
20260506104035 13 333 1.6 6.4 0.00 0.00 0.00 80 1018.0
20260506103535 13 344 1.6 6.4 0.00 0.00 0.00 79 1017.9
20260506103041 13 10 1.6 4.8 0.00 0.00 0.00 79 1018.0
20260506102535 13 5 0.0 3.2 0.00 0.00 0.00 79 1018.0
20260506102037 13 340 1.6 4.8 0.00 0.00 0.00 79 1017.8
20260506101549 13 0 1.6 4.8 0.00 0.00 0.00 79 1017.7
20260506101036 13 0 0.0 4.8 0.00 0.00 0.00 79 1017.6
20260506100536 13 24 1.6 4.8 0.00 0.00 0.00 79 1017.6
20260506100038 13 9 0.0 4.8 0.00 0.00 0.00 79 1017.5
20260506095536 13 10 0.0 4.8 0.00 0.00 0.00 79 1017.6
20260506095040 13 5 0.0 6.4 0.00 0.00 0.00 79 1017.4
20260506094547 13 348 1.6 6.4 0.00 0.00 0.00 79 1017.5
20260506094039 13 15 0.0 3.2 0.00 0.00 0.00 79 1017.4
20260506093535 13 338 0.0 3.2 0.00 0.00 0.00 79 1017.4
20260506093052 13 335 0.0 3.2 0.00 0.00 0.00 79 1017.3
20260506092535 13 333 0.0 4.8 0.00 0.00 0.00 79 1017.3
20260506092037 13 345 1.6 4.8 0.00 0.00 0.00 79 1017.2
20260506091545 13 12 1.6 4.8 0.00 0.00 0.00 78 1017.4
20260506091036 13 348 1.6 8.0 0.00 0.00 0.00 78 1017.4
20260506090536 13 19 3.2 8.0 0.00 0.00 0.00 78 1017.2
20260506090050 13 350 3.2 6.4 0.00 0.00 0.00 78 1017.2
20260506085535 13 323 1.6 6.4 0.00 0.00 0.00 78 1017.3
20260506085036 13 334 1.6 6.4 0.00 0.00 0.00 78 1017.2
20260506084549 14 11 3.2 6.4 0.00 0.00 0.00 78 1017.2
20260506084036 14 5 1.6 6.4 0.00 0.00 0.00 78 1017.3
20260506083536 14 319 1.6 6.4 0.00 0.00 0.00 78 1017.3
20260506083108 14 313 0.0 4.8 0.00 0.00 0.00 78 1017.2
20260506082536 14 19 1.6 4.8 0.00 0.00 0.00 78 1017.2
20260506082035 14 352 1.6 6.4 0.00 0.00 0.00 78 1017.2
20260506081549 14 325 0.0 6.4 0.00 0.00 0.00 78 1017.3
20260506081036 14 352 3.2 6.4 0.00 0.00 0.00 77 1017.2
20260506080538 14 342 1.6 6.4 0.00 0.00 0.00 77 1017.2
20260506073046 15 21 1.6 4.8 0.00 0.00 0.00 77 1016.8
20260506072535 15 13 1.6 3.2 0.00 0.00 0.00 77 1016.9
20260506072035 15 346 1.6 4.8 0.00 0.00 0.00 77 1016.8
20260506071552 15 11 1.6 4.8 0.00 0.00 0.00 77 1016.8
20260506071035 15 331 1.6 6.4 0.00 0.00 0.00 77 1016.8
20260506070536 15 345 1.6 6.4 0.00 0.00 0.00 77 1016.7